AGROMETEOROLOŠKI PORTAL

vinorodna pokrajina

Temelj dobrega kmetovanja

Pregled podatkov za lokacijo Sužid, meteorološka postaja 37878

Pregled senzorjev na lokaciji

ID Ime Zadnja
vrednost
Datum in čas
meritve
(lokalni čas)
Tip
senzorja
1808 Omočenost lista (1,5 m) (U) 0 U 4.10.2022 14:00 A730WET
5079 Padavine (mm) 0 mm 4.10.2022 14:00 Generic 0.2 mm
1807 Relativna zračna vlaga (2 m) (%RH) 65 %RH 4.10.2022 14:00 50YA
1806 Temperatura (2 m) (°C) 18,9 °C 4.10.2022 14:00 50YA

Pregled podatkov zadnjih 24 ur

Zap.
št.
Datum in čas
(lokalni čas)
Sužid
Omočenost
lista
(1,5
m)
Padavine Relativna
zračna
vlaga
(2
m)
Temperatura
(2
m)
1 4.10.2022 14:00 0 0 65,2 18,9
2 4.10.2022 13:30 0 0 67,2 17,9
3 4.10.2022 13:00 0 0 66,4 17,8
4 4.10.2022 12:30 0 0 69,3 17,8
5 4.10.2022 12:00 0 0 74,3 15,8
6 4.10.2022 11:30 0 0 82,2 14,4
7 4.10.2022 11:00 0 0 85,2 13,6
8 4.10.2022 10:30 0 0 85,3 13,1
9 4.10.2022 10:00 1 0 93,5 11,6
10 4.10.2022 09:30 2 0 97,5 10,8
11 4.10.2022 09:00 9 0 99,9 10
12 4.10.2022 08:30 10 0 99,9 8,7
13 4.10.2022 08:00 10 0 99,9 7,9
14 4.10.2022 07:30 10 0 99,9 7,7
15 4.10.2022 07:00 10 0 99,9 7,5
16 4.10.2022 06:30 10 0 99,9 8
17 4.10.2022 06:00 10 0 99,9 8
18 4.10.2022 05:30 10 0 99,9 8,1
19 4.10.2022 05:00 10 0 99,9 7,6
20 4.10.2022 04:30 10 0 99,9 7,9
21 4.10.2022 04:00 10 0 99,9 8,5
22 4.10.2022 03:30 10 0 99,9 8,7
23 4.10.2022 03:00 10 0 99,9 8,4
24 4.10.2022 02:30 10 0 99,9 8,7
25 4.10.2022 02:00 10 0 99,9 9,5
26 4.10.2022 01:30 10 0 99,9 8,9
27 4.10.2022 01:00 10 0 99,9 8,9
28 4.10.2022 00:30 10 0 99,9 8,9
29 4.10.2022 00:00 10 0 99,9 9,5
30 3.10.2022 23:30 10 0 99,9 9,8
31 3.10.2022 23:00 10 0 99,8 9,9
32 3.10.2022 22:30 10 0 99,8 10,5
33 3.10.2022 22:00 10 0 99,7 11,3
34 3.10.2022 21:30 10 0 99,4 11,4
35 3.10.2022 21:00 10 0 99 11,7
36 3.10.2022 20:30 10 0 98,3 12,1
37 3.10.2022 20:00 10 0 98 12,8
38 3.10.2022 19:30 10 0 96,8 13,3
39 3.10.2022 19:00 10 0 94,4 14,2
40 3.10.2022 18:30 10 0 90,3 15,5
41 3.10.2022 18:00 9 0 85 16,8
42 3.10.2022 17:30 10 0 87,1 16,6
43 3.10.2022 17:00 1 0 81,2 18
44 3.10.2022 16:30 0 0 68 21,3
45 3.10.2022 16:00 0 0 60,5 23,4